{"data":{"norad_id":47355,"intl_designator":"2021-005G","name":"STARLINK-2047","alt_names":[],"object_type":"PAYLOAD","status":"ACTIVE","operator":null,"country":"US","launch_date":"2021-01-20","launch_site_code":"AFETR","launch_vehicle":null,"mission":null,"orbit_class":"UNKNOWN","rcs_meters":null,"size_class":null,"mass_kg":null,"dimensions":null,"purposes":["comms"],"wikipedia_slug":null,"has_3d_model":false,"image_url":null,"decayed_at":null,"tle_current":{"epoch":"2026-05-25T00:49:37.305120Z","epoch_age_seconds":68546,"freshness":"FRESH","line1":"1 47355U 21005G   26145.03445955  .00005044  00000+0  17413-3 0  9996","line2":"2 47355  53.1622  15.9080 0001377  89.2909 270.8250 15.31713143295440","mean_motion":15.31713143,"eccentricity":0.0001377,"inclination_deg":53.1622,"raan_deg":15.908,"arg_perigee_deg":89.2909,"mean_anomaly_deg":270.825,"bstar":0.00017413,"rev_number":29544,"period_min":94.012381272621,"perigee_km":469.75773193931,"apogee_km":471.64390187409,"semimajor_km":6848.8378169067,"source":"CELESTRAK","updated_at":"2026-05-25T13:38:16.524410Z"}}}